Regional Weather Roundup
Issued by NWS

Home | Current Version | Previous Version | Graphics & Text | Print | Product List | Glossary Off
Versions: 1 2 3 4 5 6 7 8 9 10 11 12 13 14 15 16 17 18 19 20 21 22 23 24 25 26 27 28 29 30 31 32 33 34 35 36 37 38 39 40 41 42 43 44 45 46 47 48 49 50

000
ASUS43 KTOP 240408
RWRKS

WEATHER ROUNDUP FOR KANSAS
NATIONAL WEATHER SERVICE GOODLAND KS
1100 PM CDT FRI JUN 23 2017

NOTE:  "FAIR" INDICATES FEW OR NO CLOUDS BELOW 12,000 FEET WITH NO
SIGNIFICANT WEATHER AND/OR OBSTRUCTIONS TO VISIBILITY.

KSZ001>006-013>018-027>032-041>047-240500-
NORTHWEST KANSAS

CITY           SKY/WX    TMP DP  RH WIND       PRES   REMARKS
GOODLAND       PTCLDY    58  51  78 CALM      30.23R
HAYS           CLEAR     64  56  75 NE5       30.15R
HILL CITY      CLEAR     62  49  62 NE8       30.17R
RUSSELL        CLEAR     69  49  48 N5        30.13R
$$

KSZ061>065-074>080-084>089-240500-
SOUTHWEST KANSAS

CITY           SKY/WX    TMP DP  RH WIND       PRES   REMARKS
DODGE CITY     CLOUDY    67  55  65 CALM      30.19R
ELKHART          N/A     62  43  50 NE6         N/A
GARDEN CITY    CLOUDY    67  50  54 NW3       30.20R
GREAT BEND     CLEAR     65  57  75 W5        30.15R
LIBERAL        CLOUDY    68  48  48 NE6       30.22R
PRATT          CLOUDY    66  55  69 CALM      30.14R
$$

KSZ066>073-081>083-090>101-240500-
SOUTHEAST KANSAS

CITY           SKY/WX    TMP DP  RH WIND       PRES   REMARKS
CHANUTE        CLEAR     69  54  58 CALM      30.08R
COFFEYVILLE    CLEAR     70  57  63 N6        30.06R
HUTCHINSON     CLOUDY    66  54  65 NE5       30.11R
MEDICINE LODGE   N/A     69  53  56 CALM      30.12R
NEWTON         CLOUDY    70  50  49 NE6       30.12R
PARSONS        CLEAR     68  51  54 N7        30.08R
WICHITA INTL   CLOUDY    69  57  65 CALM      30.10R
WICHITA JABRA  CLOUDY    70  53  54 NE3       30.10R
WICHITA MCCONL CLOUDY    72  54  52 CALM      30.10R
WINFIELD       CLOUDY    72  55  55 N5        30.11R
$$

KSZ007>012-019>026-033>040-048>060-102>105-240500-
NORTHEAST KANSAS

CITY           SKY/WX    TMP DP  RH WIND       PRES   REMARKS
CONCORDIA      CLEAR     65  50  58 NE6       30.14R
EMPORIA        CLOUDY    66  55  67 CALM      30.10R
LAWRENCE       CLEAR     62  60  93 CALM      30.08R
MANHATTAN      CLEAR     64  53  67 CALM      30.11R
MARYSVILLE     CLEAR     59  52  77 NW3       30.12R
OLATHE IND     CLEAR     63  55  75 N7        30.09R
OLATHE EXE     CLEAR     68  55  63 N6        30.08R
SALINA         CLEAR     73  50  44 NE6       30.11R
TOPEKA BILLARD CLEAR     67  59  75 CALM      30.09R
TOPEKA FORBES  CLEAR     65  57  75 N3        30.09R
$$



USA.gov is the U.S. government's official web portal to all federal, state and local government web resources and services.